Regional Weather Roundup
Issued by NWS New Orleans/Baton Rouge, LA

Home | Current Version | Previous Version | Graphics & Text | Print | Product List | Glossary On
Versions: 1 2 3 4 5 6 7 8 9 10 11 12 13 14 15 16 17 18 19 20 21 22 23 24 25 26 27 28 29 30 31 32 33 34 35 36 37 38 39 40 41 42 43 44 45 46 47 48 49 50
850
ASUS44 KLIX 302110
RWRLIX
NEW ORLEANS REGIONAL WEATHER ROUNDUP
NATIONAL WEATHER SERVICE NEW ORLEANS LA
400 PM CDT WED JUL 30 2014

NOTE: "FAIR" INDICATES FEW OR NO CLOUDS BELOW 12,000 FEET WITH NO
      SIGNIFICANT WEATHER AND/OR OBSTRUCTIONS TO VISIBILITY.
      SKY/WX - SKY CONDITION AND SIGNIFICANT WEATHER.
      TMP - AIR TEMPERATURE.     DP    - DEWPOINT TEMPERATURE.
      RH  - RELATIVE HUMIDITY.   PRES  - PRESSURE.
      HI  - HEAT INDEX.          WCI   - WIND CHILL INDEX.

*  THESE STATIONS ARE NOT NWS OR FAA STATIONS AND ARE NOT UNDER
   NWS QUALITY CONTROL.

LAZ038-040-048-061>063-065>067-069-302200-
SOUTHEAST LOUISIANA

CITY           SKY/WX    TMP DP  RH WIND       PRES   REMARKS
N.O. AUDUBON     N/A     90  63  39 MISG        N/A
N.O. INTL ARPT MOSUNNY   87  61  41 N9        30.01F
N.O. LAKEFRONT SUNNY     84  63  49 NW8       30.02F
N.O. DOWNTOWN*   N/A     86  57  37 NW6       30.02F
SLIDELL        SUNNY     86  60  41 N8        30.00F
BATON ROUGE    SUNNY     87  63  44 NE5       30.01F
BOOTHVILLE     SUNNY     83  67  58 VRB6      30.02F
BELLE CHASSE   PTSUNNY   86  58  38 NW6       30.01F
BOGALUSA*        N/A     86  57  37 N6        30.03F
GALLIANO*      NOT AVBL
NEW ROADS*       N/A     85  65  50 W5        30.02S
GONZALES*        N/A     86  61  42 E3        30.00F
HAMMOND*       SUNNY     88  55  33 N3        30.03S
HOUMA*         MOSUNNY   88  63  42 N6        30.01S
PORT FOURCHON* CLOUDY    84  70  61 VRB6      30.02F

$$

MSZ070-080>082-302200-
SOUTHERN MISSISSIPPI

CITY           SKY/WX    TMP DP  RH WIND       PRES   REMARKS
MCCOMB         SUNNY     85  57  38 MISG      30.03F
GULFPORT       SUNNY     90  56  31 NW6       29.99F
BILOXI         SUNNY     85  64  48 SW10      30.00F
PASCAGOULA     SUNNY     86  59  39 N7        30.00F
STENNIS ARPT*  SUNNY    N/A N/A N/A NW5       30.01F

$$

COASTAL OBSERVATIONS
LAKE AND NEARSHORE STATIONS

STATION/POSITION TIME  TEMP    WIND        PRES    WAVE
                       AIR SEA DIR/SP/G            HT/PER
                 (UTC) (F)     (DEG/KT/KT) (MB)    (FT/S)
PASCAGOULA       2100   85     250/  8/ 11 1015.4
WAVELAND YACHT   2100   83     180/  4/  5 1015.4
GRAND ISLE       2100   85 86   50/  4/  6 1016.8
SOUTHWEST PASS   2100   89 86  360/  9/ 11 1016.4
NEW CANAL        2100   82 84  290/  2/  5 1017.0
SHELL BEACH      2100   81 82  360/  5/  7 1016.2

OFFSHORE STATIONS

STATION/POSITION TIME  TEMP    WIND        PRES    WAVE
                       AIR SEA DIR/SP/G            HT/PER
                 (UTC) (F)     (DEG/KT/KT) (MB)    (FT/S)
64 S DAUPHIN ISL 2047   81 88   20/  6/  8 1016.1

$$




USA.gov is the U.S. government's official web portal to all federal, state and local government web resources and services.